| time (UTC) | temp C | wind direction | speed KPH | gust KPH | rain 1hr cm | rain 24hr cm | rain mn cm | humidity % | barometer mb |
| 20260505040050 | 2 | 267 | 9.7 | 14.5 | 0.00 | 0.00 | 0.00 | 75 | 1011.1 |
| 20260505034608 | 2 | 272 | 11.3 | 14.5 | 0.00 | 0.00 | 0.00 | 74 | 1011.2 |
| 20260505033051 | 2 | 273 | 11.3 | 16.1 | 0.00 | 0.00 | 0.00 | 74 | 1011.1 |
| 20260505031548 | 2 | 292 | 9.7 | 16.1 | 0.00 | 0.00 | 0.00 | 74 | 1010.8 |
| 20260505030051 | 2 | 279 | 8.0 | 16.1 | 0.00 | 0.00 | 0.00 | 73 | 1010.7 |
| 20260505024549 | 2 | 276 | 8.0 | 14.5 | 0.00 | 0.00 | 0.00 | 72 | 1010.7 |
| 20260505023049 | 2 | 327 | 8.0 | 17.7 | 0.00 | 0.00 | 0.00 | 72 | 1010.6 |
| 20260505021547 | 2 | 322 | 11.3 | 19.3 | 0.00 | 0.00 | 0.00 | 71 | 1010.7 |
| 20260505020044 | 2 | 331 | 11.3 | 22.5 | 0.00 | 0.00 | 0.00 | 70 | 1010.3 |
| 20260505014542 | 3 | 327 | 8.0 | 22.5 | 0.00 | 0.00 | 0.00 | 69 | 1010.5 |
| 20260505013047 | 3 | 340 | 14.5 | 24.1 | 0.00 | 0.00 | 0.00 | 68 | 1010.4 |
| 20260505011605 | 3 | 13 | 20.9 | 30.6 | 0.00 | 0.00 | 0.00 | 67 | 1010.1 |
| 20260505010050 | 3 | 350 | 19.3 | 29.0 | 0.00 | 0.00 | 0.00 | 67 | 1010.0 |
| 20260505004545 | 3 | 5 | 19.3 | 29.0 | 0.00 | 0.00 | 0.00 | 66 | 1009.8 |
| 20260505003053 | 3 | 355 | 24.1 | 37.0 | 0.00 | 0.00 | 0.00 | 65 | 1009.7 |
| 20260505001603 | 4 | 30 | 20.9 | 32.2 | 0.00 | 0.00 | 0.00 | 63 | 1010.0 |
| 20260505000105 | 4 | 32 | 22.5 | 30.6 | 0.00 | 0.00 | 0.00 | 62 | 1009.7 |
| 20260504234547 | 5 | 339 | 24.1 | 32.2 | 0.00 | 0.00 | 0.00 | 61 | 1009.4 |
| 20260504233057 | 5 | 350 | 24.1 | 38.6 | 0.00 | 0.00 | 0.00 | 61 | 1009.3 |
| 20260504231541 | 5 | 9 | 22.5 | 35.4 | 0.00 | 0.00 | 0.00 | 61 | 1009.4 |
| 20260504230047 | 5 | 355 | 24.1 | 33.8 | 0.00 | 0.00 | 0.00 | 60 | 1009.2 |
| 20260504224548 | 5 | 360 | 24.1 | 35.4 | 0.00 | 0.00 | 0.00 | 60 | 1009.2 |
| 20260504223042 | 6 | 336 | 20.9 | 35.4 | 0.00 | 0.00 | 0.00 | 58 | 1009.0 |
| 20260504221542 | 6 | 23 | 25.7 | 35.4 | 0.00 | 0.00 | 0.00 | 55 | 1009.0 |
| 20260504220048 | 6 | 328 | 29.0 | 41.8 | 0.00 | 0.00 | 0.00 | 54 | 1008.9 |
| 20260504214549 | 7 | 360 | 24.1 | 38.6 | 0.00 | 0.00 | 0.00 | 52 | 1008.9 |
| 20260504213048 | 7 | 286 | 20.9 | 35.4 | 0.00 | 0.00 | 0.00 | 55 | 1009.1 |
| 20260504211541 | 7 | 327 | 16.1 | 32.2 | 0.00 | 0.00 | 0.00 | 55 | 1009.3 |
| 20260504210041 | 7 | 280 | 20.9 | 33.8 | 0.00 | 0.00 | 0.00 | 54 | 1009.4 |
| 20260504204541 | 7 | 341 | 27.4 | 37.0 | 0.00 | 0.00 | 0.00 | 54 | 1009.3 |
| 20260504203052 | 8 | 342 | 25.7 | 38.6 | 0.00 | 0.00 | 0.00 | 53 | 1009.2 |
| 20260504201544 | 8 | 350 | 22.5 | 37.0 | 0.00 | 0.00 | 0.00 | 54 | 1009.3 |
| 20260504200049 | 8 | 355 | 20.9 | 33.8 | 0.00 | 0.00 | 0.00 | 55 | 1009.2 |
| 20260504194545 | 8 | 338 | 20.9 | 35.4 | 0.00 | 0.00 | 0.00 | 57 | 1009.4 |
| 20260504193040 | 7 | 321 | 19.3 | 38.6 | 0.00 | 0.00 | 0.00 | 59 | 1009.5 |
| 20260504191606 | 7 | 303 | 17.7 | 35.4 | 0.00 | 0.00 | 0.00 | 57 | 1009.6 |
| 20260504190048 | 7 | 295 | 22.5 | 35.4 | 0.00 | 0.00 | 0.00 | 59 | 1009.8 |
| 20260504184541 | 7 | 275 | 25.7 | 37.0 | 0.00 | 0.00 | 0.00 | 59 | 1009.6 |
| 20260504183041 | 7 | 324 | 14.5 | 29.0 | 0.00 | 0.00 | 0.00 | 60 | 1009.7 |
| 20260504181551 | 7 | 325 | 16.1 | 32.2 | 0.00 | 0.00 | 0.00 | 62 | 1009.7 |
| 20260504180048 | 7 | 5 | 20.9 | 35.4 | 0.00 | 0.00 | 0.00 | 60 | 1009.7 |
| 20260504174544 | 7 | 350 | 22.5 | 40.2 | 0.00 | 0.00 | 0.00 | 61 | 1009.8 |